Jackson Hole, USA 16 day weather forecast

Slopes altitude range 1925 m - 3185m

Number of lifts: 12 Pistes: 116km

In some cases the lift and piste totals shown are for the ski domain (e.g. Three Valleys) rather than individual resort (e.g. Courchevel)

Overview

The 16 day weather forecast is fully updated 4 times every day.

    • Sat 20 OCT 2018
    • Sat 20
    • 1C 2C
    • Sun 21 OCT 2018
    • Sun 21
    • 1C 3C
    • Mon 22 OCT 2018
    • Mon 22
    • 2C 3C
    • Tue 23 OCT 2018
    • Tue 23
    • 4C 4C
    • Wed 24 OCT 2018
    • Wed 24
    • 1C 3C
    • Thu 25 OCT 2018
    • Thu 25
    • 0C 1C
    • Fri 26 OCT 2018
    • Fri 26
    • 0C 3C
    • Sat 27 OCT 2018
    • Sat 27
    • -6C -5C
    • Sun 28 OCT 2018
    • Sun 28
    • -6C -5C
    • Mon 29 OCT 2018
    • Mon 29
    • -3C -2C
    • Tue 30 OCT 2018
    • Tue 30
    • -3C 5C
    • Wed 31 OCT 2018
    • Wed 31
    • -2C 6C
    • Thu 01 NOV 2018
    • Thu 01
    • -2C 5C
    • Fri 02 NOV 2018
    • Fri 02
    • 2C 6C
    • Sat 03 NOV 2018
    • Sat 03
    • -7C -1C
    • Sun 04 NOV 2018
    • Sun 04
    • -6C 2C

Date:

Time Type 0°C level Temp Chill Snow Cloud Speed Gust Dir Press
12:00 4032m 2°C 2_3 0cm 0% 3mph 4mph 1028mB
15:00 4039m 3°C 3_3 0cm 0% 3mph 4mph 1028mB
18:00 4092m 14°C 14_2 0cm 0% 2mph 4mph 1025mB
21:00 4101m 14°C 14_3 0cm 0% 3mph 4mph 1022mB
0:00 3949m 10°C 10_2 0cm 0% 2mph 3mph 1021mB
3:00 4048m 5°C 5_2 0cm 0% 2mph 2mph 1023mB
6:00 3852m 3°C 3_3 0cm 0% 3mph 4mph 1023mB
9:00 3720m 2°C 2_3 0cm 0% 3mph 4mph 1023mB
12:00 3639m 3°C 3_3 0cm 3% 3mph 4mph 1022mB
15:00 3541m 4°C 4_3 0cm 99% 3mph 4mph 1022mB
18:00 3511m 13°C 13_3 0cm 99% 3mph 5mph 1020mB
21:00 3614m 13°C 13_5 0cm 100% 5mph 8mph 1017mB
0:00 3593m 9°C 9_3 0cm 100% 3mph 4mph 1016mB
3:00 3577m 5°C 5_2 0cm 100% 2mph 3mph 1018mB
6:00 3574m 3°C 3_3 0cm 99% 3mph 4mph 1019mB
9:00 3555m 2°C 2_3 0cm 79% 3mph 4mph 1019mB
12:00 3540m 3°C 3_3 0cm 88% 3mph 4mph 1019mB
15:00 3560m 4°C 4_3 0cm 98% 3mph 4mph 1020mB
18:00 3583m 14°C 14_3 0cm 97% 3mph 5mph 1017mB
21:00 3648m 14°C 14_3 0cm 59% 3mph 4mph 1015mB
0:00 3630m 10°C 10_2 0cm 79% 2mph 2mph 1015mB
3:00 3567m 5°C 5_3 0cm 100% 3mph 4mph 1017mB
6:00 3525m 4°C 4_3 0cm 100% 3mph 4mph 1018mB
9:00 3441m 4°C 4_3 0cm 100% 3mph 4mph 1018mB
12:00 3362m 4°C 4_3 0cm 100% 3mph 4mph 1018mB
15:00 3292m 4°C 4_3 0cm 100% 3mph 3mph 1019mB
18:00 3254m 11°C 11_3 0cm 100% 3mph 4mph 1016mB
21:00 3337m 10°C 10_4 0cm 100% 4mph 5mph 1014mB
0:00 3327m 7°C 7_2 0cm 100% 2mph 3mph 1014mB
3:00 3329m 5°C 5_2 0cm 100% 2mph 2mph 1016mB
6:00 3302m 3°C 3_2 0cm 87% 2mph 3mph 1017mB
9:00 3250m 2°C 2_2 0cm 12% 2mph 3mph 1018mB
12:00 3192m 3°C 3_2 0cm 6% 2mph 2mph 1018mB
15:00 3160m 3°C 3_2 0cm 49% 2mph 2mph 1019mB
18:00 3144m 9°C 9_3 0cm 74% 3mph 4mph 1017mB
21:00 3257m 9°C 9_5 0cm 100% 5mph 8mph 1015mB
0:00 3251m 6°C 6_3 0cm 100% 3mph 4mph 1015mB
3:00 3201m 3°C 3_1 0cm 100% 1mph 1mph 1018mB
6:00 3182m 1°C 1_2 0cm 55% 2mph 3mph 1019mB
9:00 3152m 0°C 0_2 0cm 0% 2mph 3mph 1019mB
12:00 2455m 1°C 1_3 0cm 15% 3mph 3mph 1019mB
15:00 3081m 2°C 2_3 0cm 99% 3mph 3mph 1019mB
18:00 3099m 9°C 9_4 0cm 100% 4mph 7mph 1016mB
21:00 3297m 9°C 9_7 0cm 100% 7mph 12mph 1013mB
0:00 3293m 7°C 7_4 0cm 100% 4mph 9mph 1013mB
3:00 3248m 5°C 5_4 0cm 100% 4mph 5mph 1015mB
6:00 3082m 3°C 3_4 0cm 100% 4mph 6mph 1015mB
9:00 2994m 3°C 3_4 0cm 100% 4mph 12mph 1015mB
12:00 2414m 3°C 3_4 0cm 76% 4mph 5mph 1015mB
15:00 2838m 1°C 1_4 0cm 43% 4mph 7mph 1015mB
18:00 2675m 4°C 4_5 2cm 72% 5mph 15mph 1012mB
21:00 2726m 3°C 3_7 0cm 100% 7mph 24mph 1009mB
0:00 2871m 3°C 3_16 0cm 100% 16mph 33mph 1009mB
3:00 2234m -1°C -1_6 1cm 100% 6mph 25mph 1015mB
6:00 1658m -4°C -4_5 1cm 89% 5mph 14mph 1019mB
9:00 1569m -6°C -6_4 0cm 57% 4mph 4mph 1020mB
12:00 1551m -5°C -5_5 1cm 78% 5mph 20mph 1022mB
15:00 1579m -5°C -5_6 1cm 100% 6mph 19mph 1024mB
18:00 1806m -4°C -4_10 1cm 100% 10mph 23mph 1022mB
21:00 2289m 0°C 0_13 0cm 68% 13mph 21mph 1021mB
0:00 2133m 0°C 0_6 0cm 40% 6mph 15mph 1023mB
3:00 1449m -5°C -5_1 0cm 13% 1mph 2mph 1029mB
6:00 1400m -5°C -5_2 0cm 36% 2mph 3mph 1033mB
9:00 1315m -6°C -6_3 0cm 44% 3mph 4mph 1035mB
12:00 1224m -5°C -5_4 0cm 41% 4mph 5mph 1037mB
15:00 1393m -5°C -5_4 0cm 67% 4mph 7mph 1037mB
18:00 2230m 4°C 4_2 0cm 71% 2mph 2mph 1032mB
21:00 2466m 4°C 4_4 0cm 82% 4mph 4mph 1027mB
0:00 2219m 0°C 0_2 0cm 83% 2mph 3mph 1027mB
3:00 1783m -3°C -3_2 0cm 86% 2mph 3mph 1030mB
6:00 1756m -3°C -3_3 0cm 66% 3mph 4mph 1030mB
9:00 1785m -3°C -3_3 0cm 54% 3mph 4mph 1030mB
12:00 1786m -2°C -2_4 0cm 59% 4mph 4mph 1029mB
15:00 2612m 0°C 0_3 0cm 57% 3mph 4mph 1029mB
18:00 4092m 8°C 8_3 0cm 67% 3mph 5mph 1024mB
21:00 4264m 8°C 8_4 0cm 88% 4mph 6mph 1021mB
0:00 4321m 3°C 3_2 0cm 76% 2mph 2mph 1021mB
3:00 4228m 1°C 1_3 0cm 51% 3mph 4mph 1023mB
6:00 2703m 0°C 0_4 0cm 25% 4mph 5mph 1023mB
Afternoon 0.0833333mm 0 3616m 5°C 5_6 0cm 9% 6mph 11mph 1018mB
Morning 0.0260417mm 0 2349m 0°C 0_5 0cm 46% 5mph 6mph 1021mB
Afternoon 0mm 0 3307m 6°C 6_6 0cm 69% 6mph 11mph 1016mB
Morning 0.00520833mm 0 2791m 1°C 1_5 0cm 54% 5mph 9mph 1014mB
Afternoon 0.15625mm 0 2638m 5°C 5_8 0cm 59% 8mph 13mph 1016mB
Morning 0.510417mm 0 2908m 3°C 3_11 0cm 89% 11mph 32mph 1011mB
Afternoon 0.536458mm 0.125 2805m 6°C 6_17 0cm 99% 17mph 33mph 1003mB
Morning 0mm 1.75 1916m -2°C -2_5 14cm 88% 5mph 16mph 1009mB
Afternoon 0.015625mm 0.0625 2003m -1°C -1_4 1cm 71% 4mph 7mph 1014mB
Morning 0mm 0.3125 1311m -6°C -6_3 2cm 76% 3mph 5mph 1015mB
Afternoon 0mm 0.625 2348m 2°C 2_15 5cm 95% 15mph 25mph 1009mB
Morning 0mm 1.625 2045m -1°C -1_6 13cm 84% 6mph 14mph 1021mB

16 day outlook at a glance

Forecast issued: 21/10/2018 02:18:15

Chat

Your comments and questions. In a resort? Let us know what it's like!


Characters left 250

For terms and conditions see Readers Comments on the Cookie and privacy policy page.